[[{"header":{"parameterUnit":"m.s-1","parameterCategory":1,"la1":30.2991,"la2":30.254,"lo1":-89.0895,"lo2":-89.0444,"dy":0.0017,"dx":0.0017,"nx":28,"ny":28,"refTime":"2025-01-10T03:00:00:Z","depth":0,"parameterNumber":2,"parameterNumberName":"U-component_of_WINDS"},"data":[0,0,0,0,0,0,0,0,0,0,0,0,0,0,0,0,0,0,0,0,0,0,0,0,0,0,0,0,0,0,0,0,0,0,0,0,0,0,0,0,0,0,0,0,0,0,0,0,0,0,0,0,0,0,0,0,0,0,7.5772,7.5774,0,7.5954,7.5956,7.5958,7.5896,7.5892,7.5888,7.5884,7.607,7.6078,7.6087,0,0,0,0,0,0,0,0,0,0,0,0,0,7.5371,7.5378,7.5772,7.5774,7.5776,7.5953,7.5956,7.5958,7.5897,7.5892,7.5887,7.5883,7.6067,7.6077,7.6088,0,0,0,0,0,0,0,0,0,0,0,0,0,7.5548,7.5381,7.5771,7.5767,7.5768,7.5953,7.5956,7.5959,7.5898,7.5892,7.5886,7.588,7.6064,7.6076,7.6089,7.6288,0,0,7.6129,7.6134,0,0,0,0,0,0,0,0,7.5538,7.5563,7.5765,7.5768,7.5769,7.5896,7.5882,7.6069,7.5899,7.5849,7.5884,7.5877,7.6017,7.6033,7.608,7.6297,7.6305,7.613,7.6138,7.6143,7.6147,0,0,0,0,0,0,0,7.5526,7.5555,7.5844,7.5768,7.5771,7.5756,7.5774,7.5918,7.5964,7.5853,7.5849,7.5871,7.6017,7.6068,7.6084,7.6308,7.6129,7.6141,7.6149,7.6154,7.6699,7.6706,0,0,0,0,0,0,7.5512,7.5545,7.5838,7.5849,7.5637,7.5768,7.5789,7.5862,7.5962,7.5972,7.5876,7.5868,7.6049,7.6069,7.6091,7.6332,7.6143,7.6155,7.6163,7.6693,7.6701,7.6708,0,0,0,0,0,0,7.5504,7.5539,7.583,7.5696,7.5732,7.5781,7.5863,7.5868,7.5919,7.598,7.5988,7.592,7.6045,7.6072,7.624,7.6338,7.6161,7.6173,7.6685,7.6695,7.6704,7.6817,0,0,0,0,0,0,7.5493,7.5537,7.5613,7.5698,7.5739,7.5978,7.5869,7.5876,7.5942,7.5933,7.6023,7.6032,7.6042,7.6221,7.6253,7.6353,7.6183,7.6676,7.6689,7.6701,7.6804,7.6829,7.6851,0,0,0,0,0,7.5479,7.5636,7.5617,7.5653,7.5836,7.5983,7.6007,7.6015,7.595,7.6028,7.6067,7.603,7.6322,7.6239,7.6274,7.6379,7.667,7.6686,7.67,7.6794,7.6824,7.685,0,0,0,0,0,0,7.556,7.5647,7.5627,7.5817,7.5893,7.5972,7.607,7.6047,7.6143,7.613,7.6136,7.6157,7.633,7.6371,7.6277,7.6578,7.6486,7.6509,7.6546,7.6575,7.6597,7.6585,7.6194,0,0,0,0,0,7.5601,7.5713,7.5783,7.5944,7.5984,7.6021,7.6085,7.6085,7.6164,7.6196,7.6247,7.6325,7.6435,7.6507,7.6611,7.681,7.6829,7.6899,7.6922,7.6941,7.6961,7.7071,7.7104,7.6758,7.6757,7.6757,0,0,7.5685,7.5746,7.5817,7.5962,7.6021,7.6138,7.6048,7.6175,7.6262,7.6215,7.6378,7.6418,7.6505,7.6691,7.6774,7.673,7.7061,7.696,7.6975,7.6985,7.709,7.7123,7.7152,7.6768,7.6766,7.6764,0,0,7.5898,7.5955,7.6097,7.6158,7.6249,7.6273,7.6307,7.6391,7.6416,7.6579,7.6547,7.6651,7.6839,7.6903,7.696,7.72,7.717,7.7234,7.7355,7.7462,7.7489,7.7513,7.7601,7.7632,7.7253,7.7253,7.7254,0,7.5991,7.6166,7.6172,7.6303,7.6369,7.6332,7.6476,7.6535,7.6655,7.6702,7.665,7.6887,7.6943,7.7143,7.7202,7.7249,7.7289,7.7224,7.7485,7.7509,7.7532,7.7615,7.7648,7.7261,7.726,7.7259,7.7258,0,7.6277,7.6399,7.6502,7.6621,7.6698,7.6834,7.6861,7.6938,7.6932,7.6961,7.7129,7.7195,7.7313,7.736,7.7355,7.7561,7.7531,7.7482,7.739,7.7572,7.7651,7.7682,7.7271,7.7268,7.7266,7.7264,0,0,7.6547,7.6668,7.6706,7.676,7.6859,7.6953,7.7088,7.7204,7.7271,7.7355,7.747,7.763,7.7587,7.7652,7.7653,7.7748,7.7936,7.7688,7.769,7.7733,7.8169,7.8206,7.8243,7.7916,7.7922,7.7927,7.8162,0,7.677,7.7009,7.7019,7.7236,7.735,7.7317,7.7435,7.7509,7.754,7.7641,7.7675,7.779,7.7722,7.7762,7.7853,7.7893,7.8023,7.7876,7.8023,7.8029,7.8004,7.8283,7.8323,7.8541,7.8192,7.8198,7.8201,0,7.7062,7.7157,7.7386,7.747,7.7518,7.7624,7.7732,7.7829,7.7911,7.7928,7.8002,7.799,7.8129,7.8031,7.8223,7.8123,7.8184,7.8213,7.8221,7.8237,7.8127,7.8308,7.8611,7.8645,7.8249,7.8246,7.8242,0,7.7239,7.7424,7.7585,7.7632,7.7733,7.7809,7.7855,7.7931,7.8001,7.8095,7.8141,7.8249,7.8309,7.8394,7.8412,7.8339,7.8606,7.8509,7.8624,7.8624,7.8682,7.8679,7.9002,7.8719,7.8718,7.8718,7.8717,0,7.7488,7.763,7.7666,7.7766,7.7924,7.7934,7.809,7.813,7.82,7.8307,7.8284,7.8385,7.8402,7.8508,7.8522,7.8681,7.8707,7.8725,7.8727,7.8728,7.8726,7.8769,7.8755,7.8727,7.8725,7.8723,7.8721,0,7.7713,7.7743,7.7917,7.7999,7.8023,7.8136,7.8206,7.8302,7.833,7.8467,7.8499,7.8544,7.8667,7.8693,7.8838,7.8848,7.9037,7.9023,7.9009,7.9009,7.9123,7.9112,7.9486,7.9536,7.9219,7.9222,7.9224,0,7.7871,7.798,7.8074,7.8144,7.8194,7.8307,7.8378,7.8392,7.8467,7.8571,7.8655,7.8775,7.8872,7.9069,7.9115,7.9226,7.9217,7.934,7.9233,7.9231,7.9221,7.9215,7.9227,7.9361,7.9364,7.9367,7.9369,0,7.8149,7.8158,7.8262,7.8372,7.8458,7.8545,7.8628,7.8687,7.8712,7.8797,7.8923,7.8998,7.9147,7.9267,7.9379,7.9426,7.9403,7.9402,7.9435,7.9437,7.9426,7.9436,7.9067,7.9394,7.9391,7.939,7.9388,7.9387,7.8346,7.8442,7.8524,7.8641,7.8705,7.8783,7.8877,7.8918,7.9023,7.9146,7.9147,7.9285,7.9366,7.9514,7.9568,7.9675,7.9637,7.9684,7.9696,7.9708,7.972,7.9407,7.9696,7.9695,7.9694,7.9694,7.9693,0,7.8625,7.8676,7.8783,7.8901,7.8993,7.8963,7.9053,7.9132,7.9254,7.9331,7.9427,7.9572,7.9689,7.9745,7.986,7.9936,7.9928,7.9966,7.9961,7.9973,7.9746,7.9707,7.997,7.997,7.997,7.997,7.997,7.997,7.8781,7.8942,7.8962,7.9155,7.9204,7.9339,7.9394,7.9466,7.9528,7.9691,7.9788,7.9824,7.9893,8.0014,8.012,8.0133,8.0177,8.0221,8.0229,8.0017,7.9989,7.9962,7.9925,8.023,8.023,8.0447,8.0449,8.045]},{"header":{"parameterUnit":"m.s-1","parameterCategory":1,"la1":30.2991,"la2":30.254,"lo1":-89.0895,"lo2":-89.0444,"dy":0.0017,"dx":0.0017,"nx":28,"ny":28,"refTime":"2025-01-10T03:00:00:Z","depth":0,"parameterNumber":3,"parameterNumberName":"V-component_of_WINDS"},"data":[0,0,0,0,0,0,0,0,0,0,0,0,0,0,0,0,0,0,0,0,0,0,0,0,0,0,0,0,0,0,0,0,0,0,0,0,0,0,0,0,0,0,0,0,0,0,0,0,0,0,0,0,0,0,0,0,0,0,-2.4963,-2.4963,0,-2.4942,-2.4941,-2.4941,-2.4904,-2.4903,-2.4902,-2.4902,-2.4879,-2.4879,-2.4879,0,0,0,0,0,0,0,0,0,0,0,0,0,-2.4973,-2.4973,-2.4963,-2.4963,-2.4963,-2.4942,-2.4941,-2.4941,-2.4904,-2.4903,-2.4902,-2.4901,-2.4879,-2.4879,-2.4879,0,0,0,0,0,0,0,0,0,0,0,0,0,-2.4962,-2.4973,-2.4963,-2.4942,-2.494,-2.4942,-2.4941,-2.4941,-2.4904,-2.4903,-2.4902,-2.4901,-2.4879,-2.4879,-2.4879,-2.49,0,0,-2.4879,-2.4879,0,0,0,0,0,0,0,0,-2.4963,-2.4962,-2.4945,-2.4943,-2.4941,-2.4924,-2.4936,-2.4927,-2.4904,-2.4918,-2.4902,-2.4901,-2.4895,-2.4893,-2.4892,-2.4899,-2.4898,-2.4879,-2.4879,-2.4879,-2.4879,0,0,0,0,0,0,0,-2.4964,-2.4962,-2.4955,-2.4945,-2.4942,-2.4933,-2.4931,-2.4935,-2.4912,-2.4916,-2.4914,-2.4912,-2.4893,-2.4892,-2.4891,-2.4898,-2.4879,-2.4879,-2.4879,-2.4879,-2.4923,-2.4924,0,0,0,0,0,0,-2.4967,-2.4963,-2.4955,-2.4954,-2.4949,-2.4934,-2.4931,-2.4931,-2.4912,-2.4908,-2.4912,-2.491,-2.4892,-2.4891,-2.489,-2.4914,-2.4879,-2.4879,-2.4879,-2.4922,-2.4924,-2.4925,0,0,0,0,0,0,-2.4968,-2.4967,-2.4956,-2.4958,-2.4956,-2.4935,-2.4935,-2.4931,-2.4929,-2.4909,-2.4905,-2.4915,-2.4891,-2.489,-2.4898,-2.4913,-2.4879,-2.4879,-2.4921,-2.4923,-2.4924,-2.4963,0,0,0,0,0,0,-2.4968,-2.4967,-2.4975,-2.4958,-2.4956,-2.4965,-2.4936,-2.4931,-2.4929,-2.4926,-2.491,-2.4907,-2.489,-2.4898,-2.4898,-2.4912,-2.4879,-2.4919,-2.4922,-2.4924,-2.496,-2.4965,-2.497,0,0,0,0,0,-2.4969,-2.4986,-2.4975,-2.4975,-2.4965,-2.4966,-2.4964,-2.4945,-2.4931,-2.4938,-2.4926,-2.4907,-2.4912,-2.49,-2.4899,-2.4913,-2.4918,-2.4921,-2.4923,-2.4958,-2.4964,-2.497,0,0,0,0,0,0,-2.5004,-2.4983,-2.4971,-2.4984,-2.4977,-2.4959,-2.4968,-2.4953,-2.4949,-2.4946,-2.4923,-2.492,-2.4931,-2.4923,-2.491,-2.4934,-2.4912,-2.4915,-2.4938,-2.4945,-2.495,-2.4951,-2.4879,0,0,0,0,0,-2.5014,-2.5016,-2.4998,-2.5011,-2.5008,-2.4989,-2.4988,-2.4975,-2.4966,-2.4963,-2.4951,-2.4944,-2.4944,-2.4944,-2.4942,-2.4959,-2.4956,-2.4969,-2.4974,-2.4978,-2.4981,-2.499,-2.4996,-2.4933,-2.4933,-2.4933,0,0,-2.5033,-2.5022,-2.5024,-2.5018,-2.501,-2.5014,-2.4986,-2.4991,-2.4993,-2.4963,-2.4971,-2.4962,-2.4953,-2.4966,-2.4971,-2.4959,-2.4998,-2.4982,-2.4985,-2.4985,-2.4993,-2.4999,-2.5005,-2.4935,-2.4935,-2.4934,0,0,-2.5069,-2.5061,-2.5071,-2.5065,-2.5055,-2.5043,-2.5046,-2.5031,-2.5024,-2.5031,-2.501,-2.5013,-2.5013,-2.5007,-2.5004,-2.5041,-2.5024,-2.5042,-2.5068,-2.5077,-2.5082,-2.5086,-2.51,-2.5105,-2.5044,-2.5044,-2.5044,0,-2.5094,-2.5098,-2.5078,-2.5084,-2.5082,-2.5057,-2.5068,-2.5063,-2.5053,-2.5052,-2.504,-2.5041,-2.5032,-2.5044,-2.5053,-2.5052,-2.5055,-2.5042,-2.5083,-2.5087,-2.5091,-2.5103,-2.5109,-2.5046,-2.5046,-2.5046,-2.5046,0,-2.5129,-2.5132,-2.5142,-2.5134,-2.5133,-2.5141,-2.5124,-2.5125,-2.5113,-2.5102,-2.511,-2.51,-2.5097,-2.5099,-2.5086,-2.5109,-2.5103,-2.5087,-2.5065,-2.5099,-2.5111,-2.5115,-2.5049,-2.5049,-2.5048,-2.5047,0,0,-2.5185,-2.5168,-2.5172,-2.5168,-2.5156,-2.5159,-2.5167,-2.5164,-2.5166,-2.5161,-2.5167,-2.5169,-2.5155,-2.5152,-2.5139,-2.5147,-2.5178,-2.513,-2.513,-2.514,-2.5204,-2.5216,-2.5222,-2.5167,-2.5168,-2.5169,-2.5205,0,-2.5219,-2.5231,-2.5215,-2.5231,-2.5234,-2.5211,-2.5218,-2.5212,-2.5203,-2.5205,-2.5195,-2.5196,-2.5178,-2.5176,-2.5183,-2.5173,-2.519,-2.517,-2.5173,-2.5173,-2.5175,-2.5227,-2.5239,-2.5274,-2.5209,-2.521,-2.5211,0,-2.5259,-2.5256,-2.5273,-2.5262,-2.5262,-2.5269,-2.5266,-2.5268,-2.5261,-2.5254,-2.5252,-2.5237,-2.5244,-2.5224,-2.5234,-2.5221,-2.5221,-2.5217,-2.5218,-2.5216,-2.5193,-2.5228,-2.5284,-2.529,-2.5218,-2.5217,-2.5216,0,-2.5298,-2.5299,-2.5309,-2.5307,-2.5294,-2.53,-2.5295,-2.5287,-2.5287,-2.5285,-2.5285,-2.5284,-2.5283,-2.5282,-2.5267,-2.5254,-2.528,-2.5258,-2.5275,-2.5275,-2.528,-2.528,-2.5338,-2.5282,-2.5282,-2.5282,-2.5282,0,-2.5337,-2.5348,-2.5327,-2.5333,-2.5345,-2.5328,-2.534,-2.5333,-2.5327,-2.5331,-2.5312,-2.5317,-2.5297,-2.53,-2.5289,-2.53,-2.53,-2.5295,-2.5291,-2.5296,-2.5297,-2.5295,-2.5292,-2.5283,-2.5283,-2.5282,-2.5282,0,-2.5382,-2.5369,-2.5379,-2.5366,-2.5364,-2.5373,-2.5363,-2.5368,-2.5359,-2.5365,-2.5366,-2.5351,-2.5354,-2.5339,-2.534,-2.5332,-2.5349,-2.5342,-2.5351,-2.5349,-2.5366,-2.5365,-2.5425,-2.5432,-2.5372,-2.5372,-2.5373,0,-2.5408,-2.5416,-2.5405,-2.5407,-2.5403,-2.5407,-2.5407,-2.539,-2.5392,-2.5386,-2.5392,-2.5394,-2.5394,-2.54,-2.539,-2.539,-2.5383,-2.5404,-2.5383,-2.5388,-2.5383,-2.5383,-2.5384,-2.5408,-2.5409,-2.5409,-2.541,0,-2.5454,-2.5448,-2.5449,-2.5448,-2.545,-2.5448,-2.5446,-2.5449,-2.5431,-2.5434,-2.5437,-2.5437,-2.5438,-2.544,-2.5439,-2.5434,-2.5419,-2.5417,-2.5421,-2.5425,-2.5431,-2.5428,-2.5363,-2.5415,-2.5415,-2.5414,-2.5414,-2.5414,-2.549,-2.5497,-2.5491,-2.5493,-2.549,-2.5488,-2.5494,-2.5485,-2.5488,-2.5487,-2.5478,-2.5483,-2.5478,-2.5475,-2.5472,-2.5476,-2.5466,-2.5472,-2.5473,-2.5475,-2.5478,-2.5431,-2.5476,-2.5476,-2.5476,-2.5476,-2.5475,0,-2.5536,-2.5531,-2.5534,-2.5531,-2.5534,-2.5521,-2.5518,-2.5521,-2.5526,-2.5522,-2.5523,-2.5528,-2.553,-2.5521,-2.5522,-2.5528,-2.5521,-2.5529,-2.5528,-2.5527,-2.5487,-2.5483,-2.5534,-2.5534,-2.5534,-2.5534,-2.5534,-2.5534,-2.556,-2.5571,-2.5564,-2.5573,-2.5569,-2.5574,-2.5574,-2.5573,-2.557,-2.5576,-2.5578,-2.5572,-2.5567,-2.5568,-2.557,-2.5567,-2.5568,-2.5578,-2.5573,-2.5536,-2.553,-2.5524,-2.5521,-2.5579,-2.5579,-2.5613,-2.5614,-2.5614]}]]